DLH7H EGLL-EDDF

Flight info

Callsign DLH7H
Flight time N/A
Altitude 35000
Route BPK Q295 MATCH DCT REDFA DCT TACHA DCT NOLRU DCT DIXAT DIXAT2C
Aircraft A20N/M-SDE2E3FGHIRWXY/LB1

Departure

Time 2026-04-30 13:55
Airport London Heathrow Airport (EGLL)

Arrival

Time N/A
Airport Frankfurt Main Airport (EDDF)
Time Latitude Longitude Altitude Speed Heading
2026-04-30 13:17 51.46996 -0.44682 90 ft 0 kts 270°
2026-04-30 13:44 51.46996 -0.44680 90 ft 2 kts 270°
2026-04-30 13:44 51.46996 -0.44639 86 ft 4 kts 270°
2026-04-30 13:45 51.47005 -0.44568 89 ft 4 kts 207°
2026-04-30 13:45 51.47029 -0.44558 87 ft 3 kts 180°
2026-04-30 13:45 51.47032 -0.44558 87 ft 0 kts 180°
2026-04-30 13:48 51.47026 -0.44558 88 ft 3 kts 180°
2026-04-30 13:48 51.46989 -0.44559 91 ft 8 kts 180°
2026-04-30 13:48 51.46929 -0.44558 87 ft 10 kts 179°
2026-04-30 13:48 51.46847 -0.44556 87 ft 13 kts 179°
2026-04-30 13:49 51.46757 -0.44595 87 ft 14 kts 240°
2026-04-30 13:49 51.46751 -0.44752 87 ft 15 kts 270°
2026-04-30 13:49 51.46751 -0.44938 87 ft 18 kts 269°
2026-04-30 13:49 51.46751 -0.45137 87 ft 18 kts 269°
2026-04-30 13:50 51.46750 -0.45329 87 ft 17 kts 270°
2026-04-30 13:50 51.46754 -0.45684 86 ft 16 kts 272°
2026-04-30 13:50 51.46748 -0.45887 86 ft 20 kts 268°
2026-04-30 13:51 51.46746 -0.46144 88 ft 25 kts 270°
2026-04-30 13:51 51.46746 -0.46394 88 ft 24 kts 270°
2026-04-30 13:51 51.46747 -0.46664 90 ft 23 kts 270°
2026-04-30 13:51 51.46747 -0.46940 89 ft 26 kts 269°
2026-04-30 13:52 51.46744 -0.47212 86 ft 19 kts 269°
2026-04-30 13:52 51.46743 -0.47440 86 ft 22 kts 270°
2026-04-30 13:52 51.46743 -0.47711 86 ft 26 kts 269°
2026-04-30 13:52 51.46741 -0.47927 86 ft 16 kts 270°
2026-04-30 13:53 51.46741 -0.48147 86 ft 23 kts 269°
2026-04-30 13:53 51.46740 -0.48383 86 ft 15 kts 270°
2026-04-30 13:53 51.46662 -0.48471 87 ft 17 kts 179°
2026-04-30 13:53 51.46544 -0.48468 88 ft 12 kts 179°
2026-04-30 13:54 51.46480 -0.48441 89 ft 9 kts 111°
2026-04-30 13:54 51.46479 -0.48290 88 ft 29 kts 90°
2026-04-30 13:54 51.46481 -0.47594 85 ft 95 kts 89°
2026-04-30 13:54 51.46487 -0.46249 111 ft 142 kts 90°
2026-04-30 13:55 51.46490 -0.44637 635 ft 146 kts 90°
2026-04-30 13:55 51.46486 -0.42965 1217 ft 152 kts 92°
2026-04-30 13:55 51.46585 -0.41280 1847 ft 162 kts 75°
2026-04-30 13:55 51.47204 -0.39626 2253 ft 185 kts 55°
2026-04-30 13:56 51.48068 -0.37968 2727 ft 204 kts 55°
2026-04-30 13:56 51.49039 -0.36101 3180 ft 229 kts 55°
2026-04-30 13:56 51.50116 -0.34032 3829 ft 254 kts 55°
2026-04-30 13:56 51.51262 -0.31787 4729 ft 264 kts 59°
2026-04-30 13:57 51.52250 -0.29282 5500 ft 267 kts 69°
2026-04-30 13:57 51.52963 -0.26524 5831 ft 268 kts 74°
2026-04-30 13:57 51.53610 -0.23720 5968 ft 268 kts 75°
2026-04-30 13:57 51.54232 -0.20908 6015 ft 268 kts 75°
2026-04-30 13:58 51.55186 -0.18278 6255 ft 283 kts 50°
2026-04-30 13:58 51.58901 -0.16137 8342 ft 298 kts
2026-04-30 13:58 51.60991 -0.16029 9356 ft 303 kts
2026-04-30 13:59 51.63091 -0.15698 10416 ft 304 kts 12°
2026-04-30 13:59 51.65223 -0.15071 11046 ft 322 kts 16°
2026-04-30 13:59 51.67476 -0.14172 11430 ft 345 kts 18°
2026-04-30 13:59 51.69809 -0.13120 12019 ft 358 kts 19°
2026-04-30 14:00 51.72095 -0.11806 12894 ft 357 kts 32°
2026-04-30 14:00 51.75309 -0.06021 14513 ft 352 kts 73°
2026-04-30 14:00 51.75835 -0.02177 15268 ft 351 kts 85°
2026-04-30 14:01 51.76126 0.01764 16048 ft 355 kts 86°
2026-04-30 14:01 51.76403 0.05746 16768 ft 360 kts 86°
2026-04-30 14:01 51.76597 0.08429 17263 ft 363 kts 86°
2026-04-30 14:01 51.76907 0.12499 18015 ft 368 kts 86°
2026-04-30 14:02 51.77235 0.16624 18730 ft 373 kts 85°
2026-04-30 14:02 51.77574 0.20792 19434 ft 375 kts 85°
2026-04-30 14:02 51.77945 0.24970 20141 ft 378 kts 82°
2026-04-30 14:02 51.78572 0.29130 20832 ft 383 kts 78°
2026-04-30 14:03 51.79247 0.33298 21516 ft 385 kts 78°
2026-04-30 14:03 51.79922 0.37513 22199 ft 388 kts 78°
2026-04-30 14:03 51.80598 0.41747 22872 ft 391 kts 79°
2026-04-30 14:03 51.81275 0.46011 23549 ft 394 kts 79°
2026-04-30 14:04 51.81959 0.50326 24144 ft 397 kts 79°
2026-04-30 14:04 51.82645 0.54668 24678 ft 400 kts 79°
2026-04-30 14:04 51.83325 0.58989 25196 ft 403 kts 79°
2026-04-30 14:04 51.84019 0.63408 25698 ft 407 kts 79°
2026-04-30 14:05 51.84717 0.67860 26195 ft 410 kts 79°
2026-04-30 14:05 51.85427 0.72403 26694 ft 413 kts 79°
2026-04-30 14:05 51.86123 0.76869 27168 ft 416 kts 79°
2026-04-30 14:05 51.86831 0.81429 27645 ft 419 kts 79°
2026-04-30 14:06 51.87542 0.86018 28088 ft 422 kts 79°
2026-04-30 14:06 51.88974 0.95295 28952 ft 428 kts 79°
2026-04-30 14:07 51.90416 1.04699 29772 ft 433 kts 79°
2026-04-30 14:07 51.91142 1.09449 30172 ft 436 kts 79°
2026-04-30 14:07 51.91870 1.14229 30532 ft 439 kts 79°
2026-04-30 14:08 51.93331 1.23871 31252 ft 443 kts 79°
2026-04-30 14:08 51.94065 1.28730 31651 ft 443 kts 79°
2026-04-30 14:08 51.95520 1.38413 32589 ft 441 kts 79°
2026-04-30 14:09 51.96243 1.43244 33054 ft 440 kts 79°
2026-04-30 14:09 51.96960 1.48062 33510 ft 439 kts 79°
2026-04-30 14:09 51.98383 1.57656 34360 ft 436 kts 79°
2026-04-30 14:10 51.99090 1.62441 34700 ft 436 kts 79°
2026-04-30 14:10 51.99793 1.67222 35007 ft 436 kts 79°
2026-04-30 14:10 52.00496 1.72015 35223 ft 437 kts 79°
2026-04-30 14:11 52.01886 1.81525 35277 ft 435 kts 79°
2026-04-30 14:11 52.03273 1.91075 35281 ft 434 kts 79°
2026-04-30 14:12 52.04653 2.00642 35282 ft 434 kts 79°
2026-04-30 14:12 52.06026 2.10218 35283 ft 434 kts 79°
2026-04-30 14:13 52.08745 2.29363 35280 ft 434 kts 79°
2026-04-30 14:14 52.10100 2.38993 35289 ft 434 kts 79°
2026-04-30 14:14 52.11429 2.48485 35283 ft 433 kts 79°
2026-04-30 14:15 52.12879 2.56918 35286 ft 435 kts 74°
2026-04-30 14:15 52.14426 2.64601 35287 ft 435 kts 74°
2026-04-30 14:16 52.16257 2.73975 35294 ft 434 kts 75°
2026-04-30 14:16 52.18040 2.83384 35292 ft 434 kts 75°
2026-04-30 14:17 52.19463 2.92907 35289 ft 430 kts 89°
2026-04-30 14:17 52.19325 2.97687 35291 ft 427 kts 101°
2026-04-30 14:17 52.18547 3.02350 35285 ft 425 kts 109°
2026-04-30 14:18 52.16672 3.11500 35288 ft 426 kts 109°
2026-04-30 14:18 52.13889 3.25241 35299 ft 426 kts 109°
2026-04-30 14:19 52.11593 3.36552 35300 ft 426 kts 109°
2026-04-30 14:20 52.09717 3.45728 35304 ft 427 kts 109°
2026-04-30 14:20 52.06902 3.59411 35301 ft 427 kts 109°
2026-04-30 14:21 52.05004 3.68580 35295 ft 428 kts 109°
2026-04-30 14:22 52.02147 3.82310 35305 ft 428 kts 109°
2026-04-30 14:22 51.99297 3.95914 35313 ft 428 kts 109°
2026-04-30 14:23 51.95474 4.14013 35310 ft 425 kts 109°
2026-04-30 14:24 51.92933 4.25955 35320 ft 424 kts 109°
2026-04-30 14:25 51.89485 4.42054 35320 ft 424 kts 109°
2026-04-30 14:26 51.86570 4.55560 35323 ft 425 kts 109°
2026-04-30 14:27 51.83637 4.69062 35317 ft 425 kts 109°
2026-04-30 14:27 51.81669 4.78078 35320 ft 424 kts 109°
2026-04-30 14:28 51.78709 4.91558 35320 ft 425 kts 109°
2026-04-30 14:28 51.76719 5.00573 35320 ft 425 kts 109°
2026-04-30 14:29 51.73065 5.17022 35326 ft 426 kts 109°
2026-04-30 14:31 51.67702 5.40935 35340 ft 426 kts 109°